Lid_Strength_Index
13 16 18 17 16 16 16 18 18 16 13 15 16 15 13 12 12 13 12 13 13 12 12 12 12 12 12 12 12 12 11 10 10 9 8 6 8 8 9 8 9 9 9 9
15 18 15 14 14 15 16 18 18 16 14 15 16 15 14 13 13 12 12 13 13 13 13 13 13 13 13 13 13 12 12 12 11 10 8 7 8 8 8 9 9 9 9 9
17 16 13 14 15 16 17 18 18 17 15 15 15 16 15 13 13 12 12 12 12 13 13 13 14 14 14 14 14 13 13 13 12 11 9 9 8 8 9 10 10 10 10 10
16 14 14 15 15 16 18 15 15 16 17 19 16 19 17 15 14 14 13 13 13 13 13 13 14 15 15 15 14 14 14 14 13 13 12 11 11 12 12 11 11 11 11 11
15 16 15 15 15 15 16 14 15 16 18 18 17 19 17 15 15 14 14 14 14 14 14 14 14 14 14 14 15 15 14 14 14 14 14 14 14 12 12 12 12 12 12 12
15 13 14 15 14 14 13 15 15 16 17 20 18 18 18 16 15 14 14 14 14 13 14 14 14 14 14 15 15 15 15 15 15 15 15 15 16 15 15 15 14 13 13 13
14 14 14 14 15 14 15 17 20 21 20 20 18 19 17 15 14 14 13 13 14 14 15 15 15 15 15 16 16 15 15 15 15 15 16 16 16 17 17 17 16 16 15 14
18 17 15 14 15 17 17 17 20 22 22 21 18 20 16 14 14 14 13 13 14 14 14 15 15 15 15 15 16 16 15 15 15 15 16 16 16 16 16 16 16 16 15 15
18 16 14 14 14 14 16 18 16 19 20 21 19 17 15 14 14 14 14 14 15 14 15 15 15 15 15 16 16 15 15 15 15 15 15 16 16 16 16 16 16 16 15 15
17 18 14 14 14 15 16 15 18 18 21 22 20 19 18 15 14 13 14 14 14 14 14 15 15 15 16 16 16 16 15 15 15 15 15 15 15 15 15 15 15 16 15 15
16 16 15 14 16 16 16 17 17 17 18 21 22 20 14 14 13 13 13 12 13 13 14 15 15 15 16 16 16 16 16 16 15 14 14 14 14 15 15 15 15 15 15 15
15 16 18 15 15 16 16 16 17 18 18 17 19 19 13 13 13 13 14 13 14 13 13 14 15 16 17 17 17 16 16 16 15 14 14 14 13 14 14 14 14 14 15 15
14 16 19 17 17 15 16 15 14 15 15 17 18 18 13 14 14 14 14 13 13 13 13 15 17 17 18 18 17 17 16 15 14 13 12 13 14 14 14 14 14 14 14 15
11 15 16 18 16 14 15 13 14 13 16 16 16 15 12 11 11 14 13 13 13 13 13 15 17 17 17 17 17 17 15 13 13 12 13 13 14 14 14 14 14 14 14 15
14 18 17 14 13 13 14 13 13 15 14 16 14 14 12 12 14 13 13 13 14 15 14 15 16 17 17 17 17 14 13 13 13 13 13 13 13 13 14 14 14 14 14 15
15 17 17 17 14 14 16 13 13 13 13 13 13 14 13 13 13 12 13 15 16 16 15 14 15 16 17 17 15 13 13 12 12 13 13 12 13 13 14 14 14 15 15 15
15 15 16 17 15 15 17 15 14 14 14 14 16 14 13 13 12 13 16 17 17 16 16 16 16 16 15 14 13 14 13 12 12 12 12 12 13 13 14 14 14 15 16 16
15 15 15 17 16 20 15 13 13 14 14 14 14 13 13 13 13 17 17 17 17 17 17 16 15 14 14 14 14 13 12 12 12 12 12 12 13 14 14 14 15 16 16 16
11 13 16 17 17 15 14 14 15 15 16 14 14 14 13 13 14 17 16 16 17 17 17 16 16 15 14 13 12 12 13 12 12 13 13 13 14 14 15 15 16 16 16 16
14 12 14 16 18 20 16 15 14 14 17 14 14 14 15 15 16 16 17 16 18 17 16 16 15 14 14 13 12 12 13 12 13 14 14 14 14 15 16 16 16 16 17 16
17 16 16 16 17 15 15 14 13 17 17 13 13 14 15 16 15 15 16 17 17 17 17 16 16 16 15 14 13 13 13 14 14 14 14 15 15 16 16 16 17 17 17 18
16 17 18 16 17 18 13 13 14 14 13 14 15 16 17 16 15 15 17 17 17 17 17 17 17 16 14 14 14 15 15 14 15 15 16 16 16 16 15 16 16 16 18 19
16 13 15 15 15 13 13 13 14 14 15 16 16 16 16 16 15 16 18 19 19 18 16 15 17 15 14 14 14 16 16 16 16 17 17 17 17 16 16 16 17 17 19 21
12 10 13 13 13 13 14 15 15 15 16 16 16 17 16 17 17 19 20 18 17 17 17 17 16 16 15 15 16 17 16 16 17 18 18 17 18 17 17 17 17 18 20 21
12 10 12 13 12 16 16 16 16 17 17 18 18 18 19 18 19 19 19 17 17 16 16 16 16 16 17 18 18 17 16 17 17 18 18 18 18 19 18 17 19 18 17 16
11 12 13 13 15 15 16 17 16 18 18 18 19 20 19 18 19 18 17 17 17 17 16 17 17 18 19 19 18 18 17 17 18 19 18 20 20 20 18 20 20 14 12 11